ARIANE 3 DEB, 33536

Orbit data source: Space-Track

ARIANE 3 DEB, 33536 is space debris in HEO originally from a launch on Thu, 08 Sep 1988 UTC launched from the French Guiana (FRGUI). Debris objects in space refer to the collection of defunct objects orbiting the Earth. Examples of debris include non-operational satellites, rocket bodies, and fragments generated from explosions, collisions, or faulty payload assembly.

Loading next visibility...
Identifier
33536, 1988-081L
Orbit
HEO
Country
Flag of FRFR
Related business
Manufacturer
Unknown
Mission
Spacecraft
Bus & Motor
Unknown
Mass
Unknown
Launch date (UTC)
1988-09-08 (37 years ago)
Launch vehicle
Unknown
Launch site
French Guiana (FRGUI)
Object type
Payload
Rocket body
Debris
Shape & HBR
Unknown shape, 1.1 m
Radar Cross Section
Small (<0.1 m²)

Expand to show TLE details & history
Last TLE update: 20 hours ago

TLE from 20 hours ago
0 ARIANE 3 DEB
1 33536U 88081L   26033.54855306 -.00000127  00000-0  00000-0 0  9996
2 33536   6.8252 320.4955 6949814  65.1614 187.7818  2.15628269170646
Epoch: 2026-02-02T13:09Z
TLE epoch observation values (Epoch: 2026-02-02T13:09:54.984Z)
Latitude
-6.28518°
Longitude
-122.78665°
Altitude
36,430.981 km
Speed
1.695 km/s
True Right ascension
13h 49m 44s
True Declination
-6° 16' 44"
Sunlit
Object was in daylight at epoch
Visualization orbit readout
Latitude
Unknown
Longitude
Unknown
Altitude
Unknown
Speed
Unknown
Apparent Right ascension
Unknown
Apparent Declination
Unknown
Sunlit
N/A
Visualization observer readout
Local Sidereal Time
10:41:23
Azimuth
Unknown
Elevation
Unknown
Doppler factor
Unknown
Orbital elements
Apogee altitude
36,526.926 km
Perigee altitude
1,342.799 km
Semi-major axis
25,312.999 km
Eccentricity
0.69498
Inclination
6.8252°
RAAN
320.4955°
Arg. of periapsis
65.1614°
True anomaly
181.94929°
Mean anomaly
187.7818°
Eccentric anomaly
184.5931°
Mean motion
0.53892 °/min
Orbital period
668 mins
BSTAR
0
Loading maneuver chart data...
Computing Atmospheric mass density...
Loading historical data...
Loading historical data...
Loading historical data...
Loading historical data...
Loading historical data...
Loading historical data...
Loading historical data...

Documentation

Showing up to 5 results
|